LLA weather

Luleå Airport
Luleå, Norrbottena län, Sweden

Public forecast

Using degrees Celsius for public forecast. Weather courtesy of forecast.io.

Current aviation weather report (METAR) for Luleå Airport

Retrieved 2019/11/17 14:20 UTC (0 seconds ago):

ESPA 171420Z 05005KT 010V070 2900 -SN OVC006 M02/M02 Q1017

Aviation forecast (TAF) for Luleå Airport

Forecast is more than 12 hours old.

Retrieved 2019/02/04 06:27 UTC (10 months ago):

TAF TAF ESPA 040820Z 0406/0418 01010KT 2000 SN VV020 TEMPO 0409/0414 1000 +SN DRSN VV009 BECMG 0414/0416 32010KT 5000 -SN VV030 RMK MIL